Observations for Trim Patrick St
| Time | AQI | Temp °C | Hum % | Pres Pa | CO μg/m³ | H₂S μg/m³ | NO μg/m³ | NO₂ μg/m³ | O₃ μg/m³ | SO₂ μg/m³ | PM1 μg/m³ | PM2.5 μg/m³ | PM10 μg/m³ |
|---|---|---|---|---|---|---|---|---|---|---|---|---|---|
| Thursday 6 August 2026 | |||||||||||||
| 01:01 | 2 | 13.7 | 73 | 38,460 | 0.25 | 1.58 | 3.54 | 12.17 | 45.76 | 0 | 2.86 | 6.37 | 7.01 |
| 01:00 | 2 | 13.7 | 74 | 38,460 | 0.24 | 1.42 | 3.51 | 12.37 | 52.57 | 0 | 2.86 | 5.64 | 6.2 |
| 00:59 | 2 | 13.7 | 73 | 38,460 | 0.25 | 0.83 | 3.49 | 12.13 | 49.22 | 0 | 2.86 | 7.81 | 8.6 |
| 00:58 | 2 | 13.7 | 74 | 38,460 | 0.25 | 0.72 | 3.45 | 12.04 | 52.03 | 0 | 2.86 | 6.36 | 6.99 |
| 00:57 | 2 | 13.7 | 74 | 38,460 | 0.25 | 0.9 | 3.44 | 11.29 | 42.22 | 0 | 2.86 | 7.06 | 7.76 |
| 00:56 | 2 | 13.7 | 74 | 38,460 | 0.23 | 2.15 | 3.42 | 13.08 | 57.43 | 0 | 2.86 | 6.33 | 6.96 |
| 00:55 | 2 | 13.7 | 74 | 38,460 | 0.24 | 1.99 | 3.42 | 11.72 | 41.56 | 0 | 3.71 | 7.76 | 8.54 |
| 00:54 | 2 | 13.7 | 74 | 38,460 | 0.25 | 2.57 | 3.44 | 12.55 | 53.19 | 0 | 4.57 | 7.76 | 8.54 |
| 00:53 | 2 | 13.7 | 74 | 38,460 | 0.24 | 3.42 | 3.4 | 13.77 | 59.84 | 0 | 3.71 | 7.78 | 8.56 |
| 00:52 | 2 | 13.7 | 73 | 38,460 | 0.25 | 3.84 | 3.42 | 14.14 | 54.89 | 0 | 4.57 | 9.22 | 10.14 |
| 00:51 | 2 | 13.7 | 73 | 38,460 | 0.26 | 4.02 | 3.39 | 13.92 | 56.69 | 0 | 3.71 | 8.51 | 9.36 |
| 00:50 | 2 | 13.7 | 73 | 38,460 | 0.28 | 4.87 | 3.46 | 17.82 | 58.1 | 0 | 5.43 | 9.22 | 10.14 |
| 00:49 | 2 | 13.7 | 73 | 38,460 | 0.29 | 4.07 | 3.48 | 17.74 | 56.51 | 0 | 7.14 | 12.82 | 14.1 |
| 00:48 | 2 | 13.7 | 73 | 38,460 | 0.28 | 3.89 | 3.45 | 15.28 | 54.95 | 0 | 6.29 | 10.67 | 11.74 |
| 00:47 | 2 | 13.7 | 73 | 38,460 | 0.27 | 3.73 | 3.47 | 12.57 | 46.19 | 0 | 8 | 12.83 | 14.11 |
| 00:45 | 2 | 13.7 | 73 | 38,460 | 0.27 | 5.11 | 3.42 | 19.63 | 58.84 | 0 | 7.14 | 10.66 | 11.72 |
| 00:44 | 2 | 13.7 | 73 | 38,460 | 0.28 | 4.07 | 3.44 | 15.18 | 54.97 | 0 | 6.29 | 10.71 | 11.78 |
| 00:40 | 2 | 13.7 | 72 | 38,460 | 0.25 | 3.86 | 3.48 | 15.32 | 55.48 | 0 | 6.29 | 11.47 | 12.62 |
| 00:39 | 2 | 13.7 | 72 | 38,460 | 0.26 | 4.43 | 3.45 | 15.11 | 57.41 | 0 | 7.14 | 11.45 | 12.59 |
| 00:37 | 2 | 13.7 | 73 | 38,460 | 0.25 | 4.02 | 3.55 | 13.81 | 49.24 | 0 | 6.29 | 10.71 | 11.78 |